Time,TemperatureF,DewpointF,PressureIn,WindDirection,WindDirectionDegrees,WindSpeedMPH,WindSpeedGustMPH,Humidity,HourlyPrecipIn,Conditions,Clouds,dailyrainin,SoftwareType,DateUTC
2013-01-19 00:02:00,43.0,-3.0,-100.00,WSW,255,13.0,19.0,13,-99.99,,,-99.99,,2013-01-19 07:02:00,
2013-01-19 00:12:00,43.0,-3.0,-100.00,West,270,13.0,19.0,13,-99.99,,,-99.99,,2013-01-19 07:12:00,
2013-01-19 00:22:00,42.0,-4.0,-100.00,WSW,245,16.0,21.0,13,-99.99,,,-99.99,,2013-01-19 07:22:00,
2013-01-19 00:32:00,41.0,-4.0,-100.00,West,265,14.0,21.0,14,-99.99,,,-99.99,,2013-01-19 07:32:00,
2013-01-19 00:52:00,40.0,-5.0,-100.00,West,265,16.0,27.0,14,-99.99,,,-99.99,,2013-01-19 07:52:00,
2013-01-19 01:02:00,39.0,-5.0,-100.00,West,270,12.0,23.0,14,-99.99,,,-99.99,,2013-01-19 08:02:00,
2013-01-19 01:12:00,39.0,-5.0,-100.00,West,270,13.0,20.0,14,-99.99,,,-99.99,,2013-01-19 08:12:00,
2013-01-19 01:22:00,39.0,-4.0,-100.00,WSW,240,16.0,22.0,15,-99.99,,,-99.99,,2013-01-19 08:22:00,
2013-01-19 01:32:00,38.0,-5.0,-100.00,WSW,245,13.0,21.0,15,-99.99,,,-99.99,,2013-01-19 08:32:00,
2013-01-19 01:42:00,38.0,-4.0,-100.00,WSW,245,19.0,24.0,16,-99.99,,,-99.99,,2013-01-19 08:42:00,
2013-01-19 01:52:00,37.0,-5.0,-100.00,WSW,250,16.0,22.0,16,-99.99,,,-99.99,,2013-01-19 08:52:00,
2013-01-19 02:02:00,36.0,-5.0,-100.00,WSW,240,16.0,22.0,16,-99.99,,,-99.99,,2013-01-19 09:02:00,
2013-01-19 02:12:00,36.0,-4.0,-100.00,WSW,240,15.0,21.0,16,-99.99,,,-99.99,,2013-01-19 09:12:00,
2013-01-19 02:22:00,36.0,-3.0,-100.00,WSW,255,16.0,24.0,17,-99.99,,,-99.99,,2013-01-19 09:22:00,
2013-01-19 02:32:00,38.0,-3.0,-100.00,WSW,240,16.0,23.0,16,-99.99,,,-99.99,,2013-01-19 09:32:00,
2013-01-19 02:42:00,38.0,-3.0,-100.00,WSW,240,16.0,23.0,16,-99.99,,,-99.99,,2013-01-19 09:42:00,
2013-01-19 02:52:00,38.0,-3.0,-100.00,WSW,240,16.0,21.0,16,-99.99,,,-99.99,,2013-01-19 09:52:00,
2013-01-19 03:02:00,37.0,-4.0,-100.00,WSW,255,13.0,19.0,16,-99.99,,,-99.99,,2013-01-19 10:02:00,
2013-01-19 03:12:00,36.0,-4.0,-100.00,West,265,15.0,23.0,16,-99.99,,,-99.99,,2013-01-19 10:12:00,
2013-01-19 03:22:00,37.0,-4.0,-100.00,WSW,255,16.0,21.0,16,-99.99,,,-99.99,,2013-01-19 10:22:00,
2013-01-19 03:32:00,36.0,-5.0,-100.00,West,260,13.0,18.0,16,-99.99,,,-99.99,,2013-01-19 10:32:00,
2013-01-19 03:42:00,35.0,-5.0,-100.00,West,270,12.0,17.0,17,-99.99,,,-99.99,,2013-01-19 10:42:00,
2013-01-19 03:52:00,35.0,-5.0,-100.00,West,275,10.0,14.0,17,-99.99,,,-99.99,,2013-01-19 10:52:00,
2013-01-19 04:03:00,36.0,-4.0,-100.00,West,265,13.0,20.0,17,-99.99,,,-99.99,,2013-01-19 11:03:00,
2013-01-19 04:12:00,36.0,-4.0,-100.00,West,260,12.0,20.0,17,-99.99,,,-99.99,,2013-01-19 11:12:00,
2013-01-19 05:52:00,28.0,-5.0,-100.00,ENE,75,1.0,4.0,22,-99.99,,,-99.99,,2013-01-19 12:52:00,
2013-01-19 06:03:00,28.0,-5.0,-100.00,SSW,195,0.0,2.0,22,-99.99,,,-99.99,,2013-01-19 13:03:00,
2013-01-19 06:12:00,28.0,-5.0,-100.00,SW,225,3.0,3.0,22,-99.99,,,-99.99,,2013-01-19 13:12:00,
2013-01-19 06:22:00,27.0,-5.0,-100.00,WSW,240,3.0,6.0,23,-99.99,,,-99.99,,2013-01-19 13:22:00,
2013-01-19 06:33:00,27.0,-6.0,-100.00,SW,230,2.0,6.0,23,-99.99,,,-99.99,,2013-01-19 13:33:00,
2013-01-19 06:42:00,28.0,-4.0,-100.00,West,275,4.0,6.0,24,-99.99,,,-99.99,,2013-01-19 13:42:00,
2013-01-19 06:52:00,29.0,-3.0,-100.00,WSW,255,2.0,5.0,24,-99.99,,,-99.99,,2013-01-19 13:52:00,
2013-01-19 07:02:00,31.0,-3.0,-100.00,WSW,245,7.0,11.0,22,-99.99,,,-99.99,,2013-01-19 14:02:00,
2013-01-19 07:12:00,30.0,-3.0,-100.00,WSW,240,7.0,11.0,22,-99.99,,,-99.99,,2013-01-19 14:12:00,
2013-01-19 07:23:00,29.0,-3.0,-100.00,WNW,300,9.0,10.0,23,-99.99,,,-99.99,,2013-01-19 14:23:00,
2013-01-19 07:33:00,29.0,-4.0,-100.00,NW,310,9.0,11.0,23,-99.99,,,-99.99,,2013-01-19 14:33:00,
2013-01-19 07:42:00,30.0,-3.0,-100.00,NW,305,10.0,12.0,23,-99.99,,,-99.99,,2013-01-19 14:42:00,
2013-01-19 07:53:00,29.0,-3.0,-100.00,WNW,295,9.0,13.0,23,-99.99,,,-99.99,,2013-01-19 14:53:00,
2013-01-19 08:03:00,30.0,-3.0,-100.00,WNW,285,11.0,13.0,23,-99.99,,,-99.99,,2013-01-19 15:03:00,
2013-01-19 08:12:00,33.0,-1.0,-100.00,West,260,14.0,17.0,22,-99.99,,,-99.99,,2013-01-19 15:12:00,
2013-01-19 08:22:00,32.0,-2.0,-100.00,NW,310,9.0,15.0,22,-99.99,,,-99.99,,2013-01-19 15:22:00,
2013-01-19 08:33:00,31.0,-3.0,-100.00,NW,315,9.0,11.0,22,-99.99,,,-99.99,,2013-01-19 15:33:00,
2013-01-19 08:43:00,33.0,-2.0,-100.00,WNW,285,8.0,11.0,22,-99.99,,,-99.99,,2013-01-19 15:43:00,
2013-01-19 08:53:00,33.0,-2.0,-100.00,WNW,295,4.0,9.0,21,-99.99,,,-99.99,,2013-01-19 15:53:00,
2013-01-19 09:03:00,35.0,-1.0,-100.00,West,260,6.0,9.0,20,-99.99,,,-99.99,,2013-01-19 16:03:00,
2013-01-19 09:12:00,37.0,0.0,-100.00,West,260,9.0,14.0,20,-99.99,,,-99.99,,2013-01-19 16:12:00,
2013-01-19 09:23:00,39.0,-1.0,-100.00,SW,230,14.0,19.0,18,-99.99,,,-99.99,,2013-01-19 16:23:00,
2013-01-19 09:33:00,41.0,0.0,-100.00,WSW,245,11.0,15.0,17,-99.99,,,-99.99,,2013-01-19 16:33:00,
2013-01-19 09:43:00,42.0,-1.0,-100.00,West,260,15.0,20.0,16,-99.99,,,-99.99,,2013-01-19 16:43:00,
2013-01-19 09:53:00,43.0,-1.0,-100.00,West,260,9.0,16.0,15,-99.99,,,-99.99,,2013-01-19 16:53:00,
2013-01-19 10:02:00,43.0,-1.0,-100.00,West,270,11.0,17.0,15,-99.99,,,-99.99,,2013-01-19 17:02:00,
2013-01-19 10:17:00,44.0,-1.0,-100.00,West,265,12.0,15.0,14,-99.99,,,-99.99,,2013-01-19 17:17:00,
2013-01-19 10:28:00,44.0,-1.0,-100.00,West,270,16.0,22.0,14,-99.99,,,-99.99,,2013-01-19 17:28:00,
2013-01-19 10:35:00,44.0,-1.0,-100.00,West,265,17.0,25.0,14,-99.99,,,-99.99,,2013-01-19 17:35:00,
2013-01-19 10:46:00,45.0,-2.0,-100.00,WSW,240,18.0,22.0,13,-99.99,,,-99.99,,2013-01-19 17:46:00,
2013-01-19 10:53:00,45.0,-1.0,-100.00,WSW,240,17.0,22.0,13,-99.99,,,-99.99,,2013-01-19 17:53:00,
2013-01-19 11:09:00,46.0,-2.0,-100.00,WSW,245,14.0,23.0,12,-99.99,,,-99.99,,2013-01-19 18:09:00,
2013-01-19 11:25:00,46.0,-2.0,-100.00,SW,230,21.0,26.0,12,-99.99,,,-99.99,,2013-01-19 18:25:00,
2013-01-19 11:34:00,47.0,-3.0,-100.00,WSW,245,16.0,25.0,12,-99.99,,,-99.99,,2013-01-19 18:34:00,
2013-01-19 11:44:00,46.0,-3.0,-100.00,WSW,240,22.0,27.0,12,-99.99,,,-99.99,,2013-01-19 18:44:00,
2013-01-19 11:54:00,47.0,-2.0,-100.00,WSW,250,19.0,26.0,12,-99.99,,,-99.99,,2013-01-19 18:54:00,
2013-01-19 12:07:00,46.0,-3.0,-100.00,SW,225,20.0,27.0,12,-99.99,,,-99.99,,2013-01-19 19:07:00,
2013-01-19 12:18:00,47.0,-3.0,-100.00,SW,230,21.0,29.0,12,-99.99,,,-99.99,,2013-01-19 19:18:00,
2013-01-19 12:28:00,47.0,-3.0,-100.00,WSW,240,20.0,27.0,12,-99.99,,,-99.99,,2013-01-19 19:28:00,
2013-01-19 12:38:00,49.0,-2.0,-100.00,WSW,245,14.0,23.0,11,-99.99,,,-99.99,,2013-01-19 19:38:00,
2013-01-19 12:45:00,49.0,-2.0,-100.00,SW,230,14.0,26.0,11,-99.99,,,-99.99,,2013-01-19 19:45:00,
2013-01-19 12:54:00,49.0,-3.0,-100.00,WSW,240,15.0,20.0,10,-99.99,,,-99.99,,2013-01-19 19:54:00,
2013-01-19 13:09:00,48.0,-4.0,-100.00,West,270,16.0,21.0,10,-99.99,,,-99.99,,2013-01-19 20:09:00,
2013-01-19 13:24:00,49.0,-5.0,-100.00,West,270,12.0,18.0,10,-99.99,,,-99.99,,2013-01-19 20:24:00,
2013-01-19 13:37:00,49.0,-5.0,-100.00,WNW,290,13.0,19.0,10,-99.99,,,-99.99,,2013-01-19 20:37:00,
2013-01-19 13:45:00,50.0,-5.0,-100.00,West,275,11.0,25.0,10,-99.99,,,-99.99,,2013-01-19 20:45:00,
2013-01-19 13:54:00,49.0,-5.0,-100.00,NW,305,19.0,26.0,10,-99.99,,,-99.99,,2013-01-19 20:54:00,
2013-01-19 14:06:00,49.0,-5.0,-100.00,NW,310,17.0,27.0,10,-99.99,,,-99.99,,2013-01-19 21:06:00,
2013-01-19 14:25:00,49.0,-5.0,-100.00,WNW,300,18.0,26.0,10,-99.99,,,-99.99,,2013-01-19 21:25:00,
2013-01-19 14:41:00,49.0,-5.0,-100.00,West,280,19.0,25.0,10,-99.99,,,-99.99,,2013-01-19 21:41:00,
2013-01-19 14:55:00,49.0,-6.0,-100.00,West,265,17.0,24.0,10,-99.99,,,-99.99,,2013-01-19 21:55:00,
2013-01-19 15:12:00,49.0,-5.0,-100.00,West,280,17.0,26.0,10,-99.99,,,-99.99,,2013-01-19 22:12:00,
2013-01-19 15:25:00,49.0,-6.0,-100.00,West,280,14.0,20.0,10,-99.99,,,-99.99,,2013-01-19 22:25:00,
2013-01-19 15:34:00,48.0,-6.0,-100.00,West,265,13.0,18.0,10,-99.99,,,-99.99,,2013-01-19 22:34:00,
2013-01-19 15:45:00,47.0,-6.0,-100.00,West,275,13.0,19.0,10,-99.99,,,-99.99,,2013-01-19 22:45:00,
2013-01-19 15:54:00,46.0,-6.0,-100.00,WSW,240,12.0,18.0,10,-99.99,,,-99.99,,2013-01-19 22:54:00,
2013-01-19 16:12:00,44.0,-6.0,-100.00,SW,235,12.0,17.0,11,-99.99,,,-99.99,,2013-01-19 23:12:00,
2013-01-19 16:25:00,42.0,-4.0,-100.00,SW,215,12.0,17.0,13,-99.99,,,-99.99,,2013-01-19 23:25:00,
2013-01-19 16:34:00,41.0,-5.0,-100.00,SW,230,11.0,16.0,13,-99.99,,,-99.99,,2013-01-19 23:34:00,
2013-01-19 16:45:00,40.0,-9.0,-100.00,WSW,240,11.0,17.0,11,-99.99,,,-99.99,,2013-01-19 23:45:00,
2013-01-19 16:58:00,40.0,-4.0,-100.00,SW,235,12.0,17.0,14,-99.99,,,-99.99,,2013-01-19 23:58:00,
2013-01-19 17:08:00,40.0,-4.0,-100.00,WSW,240,13.0,17.0,14,-99.99,,,-99.99,,2013-01-20 00:08:00,
2013-01-19 17:15:00,40.0,-3.0,-100.00,WSW,250,13.0,17.0,15,-99.99,,,-99.99,,2013-01-20 00:15:00,
2013-01-19 17:24:00,39.0,-3.0,-100.00,WSW,255,13.0,18.0,16,-99.99,,,-99.99,,2013-01-20 00:24:00,
2013-01-19 17:35:00,39.0,-3.0,-100.00,WSW,245,12.0,19.0,16,-99.99,,,-99.99,,2013-01-20 00:35:00,
2013-01-19 17:45:00,38.0,-3.0,-100.00,WSW,240,12.0,19.0,16,-99.99,,,-99.99,,2013-01-20 00:45:00,
2013-01-19 17:53:00,38.0,-2.0,-100.00,WSW,245,14.0,16.0,17,-99.99,,,-99.99,,2013-01-20 00:53:00,
2013-01-19 18:03:00,37.0,-3.0,-100.00,SW,235,9.0,15.0,17,-99.99,,,-99.99,,2013-01-20 01:03:00,
2013-01-19 18:25:00,36.0,-2.0,-100.00,SW,235,11.0,15.0,18,-99.99,,,-99.99,,2013-01-20 01:25:00,
2013-01-19 18:35:00,36.0,-2.0,-100.00,SW,230,12.0,16.0,18,-99.99,,,-99.99,,2013-01-20 01:35:00,
2013-01-19 18:45:00,37.0,-1.0,-100.00,SW,235,15.0,19.0,18,-99.99,,,-99.99,,2013-01-20 01:45:00,
2013-01-19 18:57:00,37.0,-1.0,-100.00,WSW,240,11.0,16.0,18,-99.99,,,-99.99,,2013-01-20 01:57:00,
2013-01-19 19:07:00,37.0,-2.0,-100.00,WSW,255,9.0,14.0,18,-99.99,,,-99.99,,2013-01-20 02:07:00,
2013-01-19 19:14:00,37.0,-1.0,-100.00,WSW,240,11.0,15.0,18,-99.99,,,-99.99,,2013-01-20 02:14:00,
2013-01-19 19:25:00,37.0,0.0,-100.00,WSW,250,14.0,19.0,19,-99.99,,,-99.99,,2013-01-20 02:25:00,
2013-01-19 19:35:00,38.0,-1.0,-100.00,WSW,250,15.0,21.0,18,-99.99,,,-99.99,,2013-01-20 02:35:00,
2013-01-19 19:44:00,38.0,-1.0,-100.00,WSW,255,12.0,16.0,18,-99.99,,,-99.99,,2013-01-20 02:44:00,
2013-01-19 19:55:00,37.0,-1.0,-100.00,West,270,9.0,15.0,18,-99.99,,,-99.99,,2013-01-20 02:55:00,
2013-01-19 20:07:00,38.0,-1.0,-100.00,West,265,11.0,16.0,18,-99.99,,,-99.99,,2013-01-20 03:07:00,
2013-01-19 20:14:00,38.0,-1.0,-100.00,WSW,250,13.0,18.0,18,-99.99,,,-99.99,,2013-01-20 03:14:00,
2013-01-19 20:24:00,37.0,-1.0,-100.00,WSW,240,12.0,18.0,18,-99.99,,,-99.99,,2013-01-20 03:24:00,
2013-01-19 20:37:00,37.0,-1.0,-100.00,West,260,10.0,16.0,18,-99.99,,,-99.99,,2013-01-20 03:37:00,
2013-01-19 20:45:00,37.0,-1.0,-100.00,WSW,245,8.0,14.0,18,-99.99,,,-99.99,,2013-01-20 03:45:00,
2013-01-19 20:54:00,37.0,-1.0,-100.00,West,260,10.0,15.0,18,-99.99,,,-99.99,,2013-01-20 03:54:00,
2013-01-19 21:04:00,37.0,-1.0,-100.00,WSW,250,9.0,17.0,18,-99.99,,,-99.99,,2013-01-20 04:04:00,
2013-01-19 21:14:00,37.0,-1.0,-100.00,West,260,12.0,17.0,18,-99.99,,,-99.99,,2013-01-20 04:14:00,
2013-01-19 21:35:00,37.0,-1.0,-100.00,WSW,250,11.0,19.0,18,-99.99,,,-99.99,,2013-01-20 04:35:00,
2013-01-19 21:44:00,37.0,-1.0,-100.00,WSW,250,10.0,17.0,18,-99.99,,,-99.99,,2013-01-20 04:44:00,
2013-01-19 21:54:00,37.0,-2.0,-100.00,West,265,8.0,14.0,18,-99.99,,,-99.99,,2013-01-20 04:54:00,
2013-01-19 22:04:00,36.0,-2.0,-100.00,SW,225,6.0,11.0,19,-99.99,,,-99.99,,2013-01-20 05:04:00,
2013-01-19 22:12:00,35.0,-3.0,-100.00,SW,215,5.0,11.0,19,-99.99,,,-99.99,,2013-01-20 05:12:00,
2013-01-19 22:22:00,34.0,-3.0,-100.00,SSW,195,1.0,7.0,20,-99.99,,,-99.99,,2013-01-20 05:22:00,
2013-01-19 22:32:00,35.0,-2.0,-100.00,North,0,1.0,4.0,20,-99.99,,,-99.99,,2013-01-20 05:32:00,
2013-01-19 22:42:00,36.0,-2.0,-100.00,West,265,4.0,10.0,19,-99.99,,,-99.99,,2013-01-20 05:42:00,
2013-01-19 22:53:00,36.0,-2.0,-100.00,West,270,7.0,12.0,19,-99.99,,,-99.99,,2013-01-20 05:53:00,
2013-01-19 23:02:00,35.0,-3.0,-100.00,NW,310,8.0,12.0,19,-99.99,,,-99.99,,2013-01-20 06:02:00,
2013-01-19 23:12:00,35.0,-3.0,-100.00,NW,325,9.0,11.0,19,-99.99,,,-99.99,,2013-01-20 06:12:00,
2013-01-19 23:22:00,36.0,-1.0,-100.00,NW,305,8.0,15.0,19,-99.99,,,-99.99,,2013-01-20 06:22:00,
2013-01-19 23:33:00,37.0,-1.0,-100.00,WNW,300,10.0,15.0,19,-99.99,,,-99.99,,2013-01-20 06:33:00,
2013-01-19 23:42:00,37.0,-1.0,-100.00,WNW,300,12.0,16.0,19,-99.99,,,-99.99,,2013-01-20 06:42:00,
2013-01-19 23:52:00,31.0,-4.0,-100.00,NNE,25,7.0,11.0,20,-99.99,,,-99.99,,2013-01-20 06:52:00,